• In Deutschland
  • Länderverzeichnis
  • Für 7 Tage
  • Wassertemperatur
  • Satellitenkarten
  • Wetterkarte
  • Widgets
  • user-avatar
    Anmelden

    Stündliche Wetter Oberstdorf

    Heute, 24 September, Montag

    Zeit Temperatur Niederschläge Wind Luftdruck Luftfeuchtigkeit
    00:00 +11°C° 3 mm 4 m/S 677 mmHg 96%
    01:00 +9°C° 0 mm 3 m/S 677 mmHg 98%
    02:00 +8°C° 0.6 mm 3 m/S 678 mmHg 97%
    03:00 +8°C° 0.6 mm 3 m/S 678 mmHg 97%
    04:00 +7°C° 0.6 mm 3 m/S 679 mmHg 97%
    05:00 +7°C° 0.4 mm 3 m/S 679 mmHg 97%
    06:00 +6°C° 0.4 mm 2 m/S 680 mmHg 97%
    07:00 +6°C° 0.4 mm 2 m/S 681 mmHg 97%
    08:00 +6°C° 0.1 mm 2 m/S 681 mmHg 94%
    09:00 +6°C° 0.1 mm 2 m/S 682 mmHg 91%
    10:00 +7°C° 0.1 mm 2 m/S 683 mmHg 88%
    11:00 +8°C° 0.1 mm 2 m/S 683 mmHg 82%
    12:00 +8°C° 0.1 mm 2 m/S 683 mmHg 76%
    13:00 +9°C° 0.1 mm 2 m/S 683 mmHg 69%
    14:00 +9°C° 0 mm 2 m/S 683 mmHg 67%
    15:00 +9°C° 0 mm 2 m/S 683 mmHg 65%
    16:00 +9°C° 0 mm 2 m/S 683 mmHg 63%
    17:00 +8°C° 0 mm 2 m/S 683 mmHg 71%
    18:00 +6°C° 0 mm 2 m/S 684 mmHg 79%
    19:00 +4°C° 0 mm 2 m/S 684 mmHg 87%
    20:00 +5°C° 0 mm 1 m/S 684 mmHg 88%
    21:00 +4°C° 0 mm 1 m/S 684 mmHg 89%
    22:00 +4°C° 0 mm 1 m/S 685 mmHg 90%
    23:00 +4°C° 0 mm 1 m/S 685 mmHg 90%

    Morgen, 25 September, Dienstag

    Zeit Temperatur Niederschläge Wind Luftdruck Luftfeuchtigkeit
    00:00 +3°C° 0 mm 1 m/S 685 mmHg 90%
    01:00 +3°C° 0 mm 1 m/S 685 mmHg 90%
    02:00 +3°C° 0 mm 1 m/S 685 mmHg 88%
    03:00 +3°C° 0 mm 1 m/S 685 mmHg 87%
    04:00 +3°C° 0 mm 1 m/S 685 mmHg 85%
    05:00 +3°C° 0 mm 1 m/S 685 mmHg 82%
    06:00 +3°C° 0 mm 1 m/S 685 mmHg 79%
    07:00 +3°C° 0 mm 2 m/S 685 mmHg 76%
    08:00 +5°C° 0 mm 2 m/S 686 mmHg 67%
    09:00 +7°C° 0 mm 2 m/S 686 mmHg 57%
    10:00 +10°C° 0 mm 2 m/S 686 mmHg 48%
    11:00 +11°C° 0 mm 3 m/S 686 mmHg 47%
    12:00 +12°C° 0 mm 3 m/S 686 mmHg 46%
    13:00 +13°C° 0 mm 3 m/S 686 mmHg 44%
    14:00 +12°C° 0 mm 3 m/S 686 mmHg 47%
    15:00 +12°C° 0 mm 3 m/S 686 mmHg 50%
    16:00 +12°C° 0 mm 3 m/S 686 mmHg 53%
    17:00 +9°C° 0 mm 3 m/S 685 mmHg 63%
    18:00 +7°C° 0 mm 2 m/S 685 mmHg 73%
    19:00 +5°C° 0 mm 2 m/S 685 mmHg 83%
    20:00 +4°C° 0 mm 2 m/S 685 mmHg 82%
    21:00 +4°C° 0 mm 2 m/S 686 mmHg 81%
    22:00 +4°C° 0 mm 2 m/S 686 mmHg 80%
    23:00 +4°C° 0 mm 2 m/S 686 mmHg 78%

    übermorgen, 26 September, Mittwoch

    Zeit Temperatur Niederschläge Wind Luftdruck Luftfeuchtigkeit
    00:00 +4°C° 0 mm 2 m/S 686 mmHg 76%
    01:00 +4°C° 0 mm 2 m/S 686 mmHg 74%
    02:00 +4°C° 0 mm 2 m/S 686 mmHg 72%
    03:00 +4°C° 0 mm 2 m/S 686 mmHg 71%
    04:00 +4°C° 0 mm 2 m/S 686 mmHg 70%
    05:00 +6°C° 0 mm 1 m/S 686 mmHg 68%
    06:00 +6°C° 0 mm 1 m/S 686 mmHg 66%
    07:00 +6°C° 0 mm 1 m/S 686 mmHg 63%
    08:00 +10°C° 0 mm 1 m/S 686 mmHg 55%
    09:00 +13°C° 0 mm 1 m/S 687 mmHg 48%
    10:00 +16°C° 0 mm 1 m/S 688 mmHg 40%
    11:00 +18°C° 0 mm 1 m/S 688 mmHg 39%
    12:00 +19°C° 0 mm 1 m/S 688 mmHg 38%
    13:00 +20°C° 0 mm 1 m/S 688 mmHg 37%
    14:00 +20°C° 0 mm 1 m/S 687 mmHg 41%
    15:00 +19°C° 0 mm 1 m/S 687 mmHg 46%
    16:00 +19°C° 0 mm 1 m/S 687 mmHg 50%
    17:00 +15°C° 0 mm 1 m/S 686 mmHg 61%
    18:00 +12°C° 0 mm 1 m/S 686 mmHg 72%
    19:00 +10°C° 0 mm 1 m/S 686 mmHg 83%
    20:00 +9°C° 0 mm 1 m/S 686 mmHg 82%
    21:00 +9°C° 0 mm 1 m/S 686 mmHg 80%
    22:00 +9°C° 0 mm 1 m/S 686 mmHg 78%
    23:00 +9°C° 0 mm 1 m/S 686 mmHg 74%

    27 September, Donnerstag

    Zeit Temperatur Niederschläge Wind Luftdruck Luftfeuchtigkeit
    00:00 +9°C° 0 mm 1 m/S 686 mmHg 71%
    01:00 +9°C° 0 mm 1 m/S 686 mmHg 67%
    02:00 +9°C° 0 mm 1 m/S 686 mmHg 63%
    03:00 +9°C° 0 mm 1 m/S 685 mmHg 60%
    04:00 +9°C° 0 mm 1 m/S 685 mmHg 56%
    05:00 +9°C° 0 mm 1 m/S 685 mmHg 55%
    06:00 +9°C° 0 mm 1 m/S 685 mmHg 54%
    07:00 +10°C° 0 mm 1 m/S 685 mmHg 53%
    08:00 +13°C° 0 mm 1 m/S 686 mmHg 48%
    09:00 +16°C° 0 mm 1 m/S 686 mmHg 43%
    10:00 +20°C° 0 mm 1 m/S 687 mmHg 38%
    11:00 +21°C° 0 mm 1 m/S 687 mmHg 38%
    12:00 +22°C° 0 mm 1 m/S 686 mmHg 37%
    13:00 +23°C° 0 mm 1 m/S 686 mmHg 36%
    14:00 +22°C° 0 mm 1 m/S 686 mmHg 41%
    15:00 +22°C° 0 mm 1 m/S 685 mmHg 46%
    16:00 +21°C° 0 mm 1 m/S 685 mmHg 50%
    17:00 +18°C° 0 mm 1 m/S 684 mmHg 60%
    18:00 +14°C° 0 mm 1 m/S 684 mmHg 70%
    19:00 +12°C° 0 mm 1 m/S 683 mmHg 79%
    20:00 +11°C° 0 mm 1 m/S 683 mmHg 78%
    21:00 +11°C° 0 mm 1 m/S 683 mmHg 77%
    22:00 +11°C° 0 mm 1 m/S 682 mmHg 75%
    23:00 +11°C° 0 mm 1 m/S 682 mmHg 74%

    28 September, Freitag

    Zeit Temperatur Niederschläge Wind Luftdruck Luftfeuchtigkeit
    00:00 +11°C° 0 mm 1 m/S 682 mmHg 73%
    01:00 +11°C° 0 mm 1 m/S 681 mmHg 72%
    02:00 +10°C° 0 mm 1 m/S 681 mmHg 70%
    03:00 +10°C° 0 mm 1 m/S 680 mmHg 68%
    04:00 +10°C° 0 mm 1 m/S 680 mmHg 67%
    05:00 +10°C° 0 mm 1 m/S 680 mmHg 65%
    06:00 +10°C° 0 mm 1 m/S 680 mmHg 63%
    07:00 +10°C° 0 mm 1 m/S 680 mmHg 61%
    08:00 +13°C° 0 mm 1 m/S 680 mmHg 55%
    09:00 +16°C° 0 mm 1 m/S 680 mmHg 49%
    10:00 +20°C° 0 mm 1 m/S 681 mmHg 43%
    11:00 +20°C° 0 mm 1 m/S 681 mmHg 42%
    12:00 +20°C° 0 mm 2 m/S 680 mmHg 42%
    13:00 +21°C° 0 mm 2 m/S 680 mmHg 41%
    14:00 +20°C° 0 mm 2 m/S 680 mmHg 46%
    15:00 +20°C° 0 mm 2 m/S 679 mmHg 51%
    16:00 +19°C° 0 mm 2 m/S 679 mmHg 56%
    17:00 +16°C° 0 mm 1 m/S 679 mmHg 67%
    18:00 +14°C° 0 mm 1 m/S 678 mmHg 78%
    19:00 +11°C° 0 mm 1 m/S 678 mmHg 90%
    20:00 +11°C° 0 mm 1 m/S 678 mmHg 91%
    21:00 +10°C° 0 mm 1 m/S 678 mmHg 92%
    22:00 +10°C° 0 mm 1 m/S 679 mmHg 93%
    23:00 +9°C° 0 mm 1 m/S 679 mmHg 94%

    29 September, Samstag

    Zeit Temperatur Niederschläge Wind Luftdruck Luftfeuchtigkeit
    00:00 +9°C° 0 mm 1 m/S 679 mmHg 95%
    01:00 +9°C° 0 mm 1 m/S 678 mmHg 95%
    02:00 +9°C° 0 mm 1 m/S 678 mmHg 95%
    03:00 +8°C° 0 mm 1 m/S 678 mmHg 95%
    04:00 +8°C° 0 mm 1 m/S 678 mmHg 95%
    05:00 +7°C° 0 mm 2 m/S 679 mmHg 95%
    06:00 +7°C° 0 mm 2 m/S 679 mmHg 95%
    07:00 +7°C° 0 mm 2 m/S 679 mmHg 95%
    08:00 +9°C° 0 mm 2 m/S 679 mmHg 88%
    09:00 +10°C° 0 mm 2 m/S 679 mmHg 81%
    10:00 +13°C° 0 mm 2 m/S 680 mmHg 73%
    11:00 +13°C° 0 mm 3 m/S 680 mmHg 69%
    12:00 +14°C° 0 mm 3 m/S 679 mmHg 65%
    13:00 +16°C° 0 mm 3 m/S 679 mmHg 60%
    14:00 +14°C° 0 mm 3 m/S 679 mmHg 62%
    15:00 +14°C° 0 mm 3 m/S 679 mmHg 64%
    16:00 +14°C° 0 mm 3 m/S 679 mmHg 66%
    17:00 +12°C° 0 mm 3 m/S 678 mmHg 74%
    18:00 +10°C° 0 mm 2 m/S 678 mmHg 82%
    19:00 +8°C° 0 mm 2 m/S 678 mmHg 91%
    20:00 +8°C° 0 mm 2 m/S 678 mmHg 90%
    21:00 +8°C° 0 mm 2 m/S 678 mmHg 89%
    22:00 +8°C° 0 mm 2 m/S 678 mmHg 88%
    23:00 +7°C° 0 mm 2 m/S 678 mmHg 88%
    Mehr zeigen